When you browse on this site, cookies collect data to enhance your experience and personalize the content and advertising you see.
Visit our Privacy Policy to learn more. By continuing to use the site, you agree to this use of cookies and data.
  • In Romania
  • List of Countries
  • For 7 days
  • Water Temperature
  • Satellite Maps
  • Weather Map
  • Weather Widgets
  • user-avatar
    Login

    Hourly Weather Naydenka

    Today, 24 July, Wednesday

    Time Temperature Precipitation Wind Pressure Humidity
    00:00 +14°C° 0 mm 1 mps 743 mmHg 85%
    01:00 +13°C° 0 mm 1 mps 743 mmHg 88%
    02:00 +12°C° 0 mm 1 mps 743 mmHg 92%
    03:00 +13°C° 0 mm 1 mps 743 mmHg 92%
    04:00 +13°C° 0 mm 1 mps 743 mmHg 92%
    05:00 +14°C° 0 mm 1 mps 743 mmHg 92%
    06:00 +16°C° 0 mm 1 mps 743 mmHg 86%
    07:00 +18°C° 0 mm 1 mps 743 mmHg 80%
    08:00 +19°C° 0 mm 2 mps 744 mmHg 74%
    09:00 +20°C° 0.1 mm 2 mps 744 mmHg 69%
    10:00 +21°C° 0.1 mm 2 mps 744 mmHg 64%
    11:00 +23°C° 0.1 mm 2 mps 744 mmHg 59%
    12:00 +23°C° 0.5 mm 2 mps 744 mmHg 64%
    13:00 +23°C° 0.5 mm 2 mps 744 mmHg 69%
    14:00 +21°C° 0.5 mm 2 mps 744 mmHg 73%
    15:00 +21°C° 0.4 mm 2 mps 744 mmHg 75%
    16:00 +21°C° 0.4 mm 2 mps 744 mmHg 76%
    17:00 +20°C° 0.4 mm 2 mps 744 mmHg 77%
    18:00 +19°C° 0.1 mm 2 mps 744 mmHg 82%
    19:00 +17°C° 0.1 mm 2 mps 744 mmHg 87%
    20:00 +16°C° 0.1 mm 2 mps 744 mmHg 92%
    21:00 +15°C° 0 mm 2 mps 744 mmHg 94%
    22:00 +15°C° 0 mm 2 mps 744 mmHg 96%
    23:00 +14°C° 0 mm 2 mps 744 mmHg 98%

    Tomorrow, 25 July, Thursday

    Time Temperature Precipitation Wind Pressure Humidity
    00:00 +14°C° 0.1 mm 2 mps 744 mmHg 98%
    01:00 +14°C° 0.1 mm 2 mps 744 mmHg 98%
    02:00 +14°C° 0.1 mm 2 mps 744 mmHg 98%
    03:00 +14°C° 0.2 mm 2 mps 744 mmHg 98%
    04:00 +15°C° 0.2 mm 2 mps 744 mmHg 98%
    05:00 +15°C° 0.2 mm 2 mps 744 mmHg 98%
    06:00 +15°C° 0.6 mm 2 mps 744 mmHg 98%
    07:00 +15°C° 0.6 mm 2 mps 744 mmHg 98%
    08:00 +16°C° 0.6 mm 2 mps 744 mmHg 98%
    09:00 +16°C° 0.2 mm 2 mps 744 mmHg 98%
    10:00 +17°C° 0.2 mm 2 mps 745 mmHg 97%
    11:00 +18°C° 0.2 mm 1 mps 745 mmHg 97%
    12:00 +18°C° 0.6 mm 2 mps 745 mmHg 94%
    13:00 +20°C° 0.6 mm 2 mps 745 mmHg 91%
    14:00 +21°C° 0.6 mm 2 mps 745 mmHg 88%
    15:00 +21°C° 0.7 mm 3 mps 746 mmHg 89%
    16:00 +20°C° 0.7 mm 3 mps 746 mmHg 91%
    17:00 +20°C° 0.7 mm 3 mps 746 mmHg 93%
    18:00 +19°C° 0.2 mm 3 mps 746 mmHg 94%
    19:00 +19°C° 0.2 mm 3 mps 746 mmHg 96%
    20:00 +18°C° 0.2 mm 2 mps 747 mmHg 97%
    21:00 +17°C° 0 mm 2 mps 747 mmHg 97%
    22:00 +17°C° 0 mm 2 mps 747 mmHg 98%
    23:00 +17°C° 0 mm 2 mps 748 mmHg 98%

    Day after tomorrow, 26 July, Friday

    Time Temperature Precipitation Wind Pressure Humidity
    00:00 +16°C° 0 mm 2 mps 748 mmHg 97%
    01:00 +16°C° 0 mm 2 mps 748 mmHg 97%
    02:00 +16°C° 0 mm 2 mps 748 mmHg 96%
    03:00 +16°C° 0 mm 2 mps 748 mmHg 95%
    04:00 +16°C° 0 mm 2 mps 749 mmHg 94%
    05:00 +16°C° 0 mm 2 mps 749 mmHg 93%
    06:00 +18°C° 0 mm 2 mps 749 mmHg 90%
    07:00 +19°C° 0 mm 2 mps 749 mmHg 86%
    08:00 +20°C° 0 mm 3 mps 749 mmHg 82%
    09:00 +22°C° 0 mm 3 mps 749 mmHg 74%
    10:00 +25°C° 0 mm 3 mps 749 mmHg 66%
    11:00 +27°C° 0 mm 3 mps 749 mmHg 58%
    12:00 +27°C° 0.3 mm 3 mps 749 mmHg 60%
    13:00 +27°C° 0.3 mm 3 mps 749 mmHg 63%
    14:00 +27°C° 0.3 mm 3 mps 748 mmHg 65%
    15:00 +27°C° 0.1 mm 3 mps 748 mmHg 65%
    16:00 +27°C° 0.1 mm 3 mps 748 mmHg 66%
    17:00 +27°C° 0.1 mm 3 mps 748 mmHg 66%
    18:00 +25°C° 0 mm 3 mps 748 mmHg 73%
    19:00 +23°C° 0 mm 2 mps 748 mmHg 79%
    20:00 +21°C° 0 mm 2 mps 748 mmHg 85%
    21:00 +20°C° 0 mm 2 mps 748 mmHg 87%
    22:00 +19°C° 0 mm 2 mps 748 mmHg 88%
    23:00 +18°C° 0 mm 2 mps 748 mmHg 90%

    27 July, Saturday

    Time Temperature Precipitation Wind Pressure Humidity
    00:00 +18°C° 0 mm 2 mps 748 mmHg 92%
    01:00 +17°C° 0 mm 2 mps 748 mmHg 93%
    02:00 +17°C° 0 mm 2 mps 748 mmHg 95%
    03:00 +17°C° 0 mm 2 mps 748 mmHg 93%
    04:00 +17°C° 0 mm 2 mps 747 mmHg 91%
    05:00 +18°C° 0 mm 2 mps 747 mmHg 89%
    06:00 +20°C° 0 mm 2 mps 747 mmHg 82%
    07:00 +21°C° 0 mm 2 mps 747 mmHg 75%
    08:00 +24°C° 0 mm 2 mps 747 mmHg 68%
    09:00 +25°C° 0 mm 2 mps 747 mmHg 63%
    10:00 +27°C° 0 mm 3 mps 747 mmHg 58%
    11:00 +28°C° 0 mm 3 mps 747 mmHg 53%
    12:00 +28°C° 0 mm 3 mps 746 mmHg 52%
    13:00 +28°C° 0 mm 3 mps 746 mmHg 50%
    14:00 +29°C° 0 mm 3 mps 745 mmHg 49%
    15:00 +28°C° 0 mm 3 mps 745 mmHg 53%
    16:00 +28°C° 0 mm 2 mps 744 mmHg 58%
    17:00 +27°C° 0 mm 2 mps 744 mmHg 62%
    18:00 +26°C° 0 mm 2 mps 744 mmHg 67%
    19:00 +24°C° 0 mm 3 mps 744 mmHg 73%
    20:00 +22°C° 0 mm 3 mps 744 mmHg 78%
    21:00 +20°C° 0 mm 3 mps 744 mmHg 82%
    22:00 +19°C° 0 mm 3 mps 744 mmHg 86%
    23:00 +18°C° 0 mm 3 mps 744 mmHg 90%

    28 July, Sunday

    Time Temperature Precipitation Wind Pressure Humidity
    00:00 +17°C° 0 mm 3 mps 744 mmHg 86%
    01:00 +17°C° 0 mm 3 mps 744 mmHg 82%
    02:00 +16°C° 0 mm 3 mps 744 mmHg 78%
    03:00 +14°C° 0 mm 3 mps 744 mmHg 78%
    04:00 +13°C° 0 mm 4 mps 745 mmHg 77%
    05:00 +12°C° 0 mm 4 mps 745 mmHg 77%
    06:00 +12°C° 0 mm 4 mps 745 mmHg 74%
    07:00 +12°C° 0 mm 4 mps 745 mmHg 71%
    08:00 +12°C° 0 mm 4 mps 745 mmHg 68%
    09:00 +13°C° 0 mm 4 mps 745 mmHg 63%
    10:00 +13°C° 0 mm 4 mps 746 mmHg 58%
    11:00 +14°C° 0 mm 4 mps 746 mmHg 53%
    12:00 +14°C° 0 mm 4 mps 746 mmHg 52%
    13:00 +14°C° 0 mm 4 mps 745 mmHg 51%
    14:00 +15°C° 0 mm 4 mps 745 mmHg 50%
    15:00 +14°C° 0 mm 4 mps 745 mmHg 52%
    16:00 +14°C° 0 mm 4 mps 745 mmHg 54%
    17:00 +13°C° 0 mm 4 mps 745 mmHg 56%
    18:00 +12°C° 0 mm 3 mps 745 mmHg 60%
    19:00 +10°C° 0 mm 3 mps 745 mmHg 64%
    20:00 +9°C° 0 mm 2 mps 745 mmHg 69%
    21:00 +9°C° 0 mm 2 mps 745 mmHg 68%
    22:00 +9°C° 0 mm 2 mps 745 mmHg 67%
    23:00 +9°C° 0 mm 2 mps 745 mmHg 67%

    29 July, Monday

    Time Temperature Precipitation Wind Pressure Humidity
    00:00 +9°C° 0 mm 2 mps 745 mmHg 68%
    01:00 +9°C° 0 mm 2 mps 745 mmHg 70%
    02:00 +8°C° 0 mm 2 mps 745 mmHg 71%
    03:00 +8°C° 0 mm 2 mps 745 mmHg 72%
    04:00 +8°C° 0 mm 2 mps 745 mmHg 73%
    05:00 +8°C° 0 mm 2 mps 745 mmHg 73%
    06:00 +8°C° 0 mm 3 mps 745 mmHg 71%
    07:00 +8°C° 0 mm 3 mps 745 mmHg 70%
    08:00 +8°C° 0 mm 3 mps 744 mmHg 68%
    09:00 +8°C° 0 mm 4 mps 744 mmHg 66%
    10:00 +8°C° 0 mm 4 mps 744 mmHg 65%
    11:00 +8°C° 0 mm 4 mps 744 mmHg 63%
    12:00 +10°C° 0.1 mm 4 mps 744 mmHg 63%
    13:00 +10°C° 0.1 mm 4 mps 743 mmHg 62%
    14:00 +11°C° 0.1 mm 4 mps 743 mmHg 62%
    15:00 +11°C° 0.2 mm 4 mps 743 mmHg 64%
    16:00 +10°C° 0.2 mm 4 mps 743 mmHg 66%
    17:00 +10°C° 0.2 mm 4 mps 743 mmHg 68%
    18:00 +9°C° 0.2 mm 3 mps 742 mmHg 77%
    19:00 +8°C° 0.2 mm 3 mps 742 mmHg 85%
    20:00 +7°C° 0.2 mm 3 mps 742 mmHg 93%
    21:00 +5°C° 0.1 mm 3 mps 742 mmHg 94%
    22:00 +4°C° 0.1 mm 3 mps 742 mmHg 95%
    23:00 +4°C° 0.1 mm 3 mps 742 mmHg 96%
    Show more